Flag for Germany Weather past 2 weeks in Rendsburg, Schleswig-Holstein, Germany

Now
57 °F

Scattered clouds.


Feels Like: 53 °F
Forecast: 43 / 61 °F
Wind: 18 mph from Northwest

Location: Hohn

Current Time: Apr 21, 2015 at 12:36:09 PM

Latest Report: Apr 21, 2015 at 11:20 AM


Visibility: N/A

Pressure: 30.33 "Hg

Humidity: 55%

Dew point: 41 °F

Location of RendsburgLocation

Historic Weather in Rendsburg — Graph

°F

Rendsburg temperature yesterday

Maximum temperature yesterday: 64 °F (at 3:20 PM)
Minimum temperature yesterday: 34 °F (at 5:20 AM)
Average temperature yesterday: 50 °F

Past Weeks' High & Low Weather Summary

 TemperatureHumidityPressure
High64 °F (Apr 11, 2:20 PM)100% (Apr 7, 8:20 PM)30.57 "Hg (Apr 7, 8:20 PM)
Low27 °F (Apr 7, 2:20 AM)27% (Apr 20, 7:20 PM)29.86 "Hg (Apr 15, 1:20 PM)
Average46 °F74%30.21 "Hg
* Reported Apr 6 11:20 AM — Apr 21 11:20 AM, Rendsburg, Weather by CustomWeather, © 2015

Note: Actual official high and low records may vary slightly from our data, if they occured in-between our weather recording intervals... More about our weather records

Advertising

Rendsburg weather history for previous 24 hours

 ConditionsComfort  
Time TempWeatherWind HumidityBarometerVisibility
11:20 AM
Tue, Apr 21
57 °FScattered clouds.18 mph55%30.33 "HgN/A
10:20 AM55 °FScattered clouds.15 mph55%30.33 "HgN/A
9:20 AM52 °FScattered clouds.14 mph62%30.36 "HgN/A
8:20 AM48 °FScattered clouds.10 mph71%30.36 "HgN/A
7:20 AM41 °FScattered clouds.8 mph87%30.36 "HgN/A
6:20 AM39 °FPassing clouds.9 mph87%30.33 "HgN/A
5:20 AM37 °FPassing clouds.7 mph93%30.33 "HgN/A
4:20 AM41 °FQuite cool.8 mph87%30.36 "Hg6 mi
3:20 AM41 °FQuite cool.8 mph87%30.36 "HgN/A
2:20 AM43 °FPassing clouds.8 mph81%30.36 "HgN/A
1:20 AM43 °FPassing clouds.8 mph87%30.36 "HgN/A
12:20 AM45 °FPassing clouds.6 mph81%30.36 "HgN/A
11:20 PM
Mon, Apr 20
48 °FPassing clouds.8 mph71%30.36 "HgN/A
10:20 PM48 °FPassing clouds.5 mph58%30.36 "HgN/A
9:20 PM52 °FPartly sunny.6 mph44%30.36 "HgN/A
8:20 PM57 °FPartly sunny.2 mph36%30.33 "HgN/A
7:20 PM63 °FPartly sunny.7 mph27%30.33 "HgN/A
6:20 PM64 °FPartly sunny.10 mph28%30.33 "HgN/A
5:20 PM64 °FPartly sunny.10 mph34%30.33 "HgN/A
4:20 PM64 °FPartly sunny.8 mph34%30.36 "HgN/A
3:20 PM64 °FPartly sunny.10 mph32%30.36 "HgN/A
2:20 PM63 °FPartly sunny.13 mph37%30.36 "HgN/A
1:20 PM63 °FPartly sunny.10 mph37%30.36 "HgN/A
12:20 PM61 °FPartly sunny.12 mph36%30.36 "HgN/A
Weather by CustomWeather, © 2015

See weather overviewHow to use our weather pages